カタログに戻る

DELTA 1 DEB

運用中SSO
NORAD 42094·DEBRIS·🇺🇸 United States

打ち上げ Dec 15, 1968 から Vandenberg Space Force Base

Loading…

次のパス (今後24時間)

TLE

古いSource: Space-Track

元期: Aug 27, 2026, 10:09 UTC

1 42094U 68114W   26239.42326983  .00000017  00000-0  43452-3 0  9997
2 42094 101.5830 123.5566 0195315 219.7812 138.8790 12.37386112304840

AllMySatでDELTA 1 DEBをリアルタイム追跡

Download on the App Store